sat.trackr.live / text

‹ back to catalog

STARLINK-2153

NORAD 48009 · 2021-024AJ

PAYLOAD ACTIVE UNKNOWN

§ Identity

Operator
Country
US
Launch date
2021-03-24
Launch site
AFETR
Launch vehicle
Mass (kg)
RCS (m²)

Purposes: comms

External: N2YO · Heavens-Above · Gunter

§ Orbital elements

Epoch: 2026-09-20T04:33:24.831072Z

Period
93.38 min
Inclination
53.1580°
Eccentricity
0.0001488
Mean motion
15.42120601 rev/d
Perigee alt
438.8 km
Apogee alt
440.9 km
Semi-major
6,818.0 km
B*
8.0107e-4
RAAN
121.8215°
Arg perigee
169.7103°
Mean anomaly
190.3934°
Rev number
30,473

§ Raw data

STARLINK-21531 48009U 21024AJ  26263.18987073  .00034559  00000+0  80107-3 0  99962 48009  53.1580 121.8215 0001488 169.7103 190.3934 15.42120601304731

JSON: /api/v1/satellites/48009 · /tle

For live sub-satellite position, see the globe view (requires WebGL).

§ Visibility from observer

Set your observer location to see the next 7 days of passes ≥ 10°. The values pass through the URL so the page stays shareable.

No JS? Fill the form by hand. The geolocation button needs JavaScript.